Other Surface Observations
Issued by NWS

Home | Current Version | Previous Version | Text Only | Print | Product List | Glossary On
Versions: 1 2 3 4 5 6 7 8 9 10 11 12 13 14 15 16 17 18 19 20 21 22 23 24 25 26 27 28 29 30 31 32 33 34 35 36 37 38 39 40 41 42 43 44 45 46 47 48 49 50
616
SXUS52 KTAE 212318
OSOTAE
OSOTAE
North Florida/South Alabama/Southwest Georgia Weather Roundup
National Weather Service Tallahassee Florida
700 PM EDT SAT APR 21 2018

Note: "fair" indicates few or no clouds below 12,000 feet with no
significant weather and/or obstructions to visibility.

!FLZ017-115-028-034-025-220000
...North Florida...

CITY           SKY/WX    TMP DP  RH WIND       PRES   REMARKS
TALLAHASSEE    FAIR      75  62  64 E16       30.13S
APALACHICOLA   FAIR      78  66  66 E9        30.10S
PERRY          LGT RAIN  74  64  69 NE10G18   30.14S
CROSS CITY     CLOUDY    75  68  78 NE9       30.11S
JACKSONVILLE   CLOUDY    70  61  73 E14       30.20S
$$

!FLZ112-006-005-002-011-220000
...Florida Panhandle...

CITY           SKY/WX    TMP DP  RH WIND       PRES   REMARKS
MARIANNA       CLOUDY    75  61  61 E14       30.12R
BONIFAY        NOT AVBL
PANAMA CITY NW FAIR      75  65  70 S7        30.09F
TYNDALL AFB    FAIR      74  67  77 SW5       30.09F
TYND DRONE APT FAIR      75  66  73 W5        30.09F
DE FUNIAK SPR  CLOUDY    75  61  61 NE5       30.11S
EGLIN AFB      PTSUNNY   71  60  67 S6        30.10S
DESTIN         CLOUDY    74  59  59 S6        30.11S
HURLBURT       CLOUDY    71  61  70 S5        30.10S
CRESTVIEW      CLOUDY    77  60  55 E5        30.12S
PENSACOLA      FAIR      73  62  68 SE10      30.10F
$$

!ALZ063-066-220000
...South Alabama...

CITY           SKY/WX    TMP DP  RH WIND       PRES   REMARKS
DOTHAN         PTSUNNY   74  57  55 E12       30.16F
OZARK CAIRNS   CLOUDY    74  60  59 E12       30.12S
FT RUCKER HELI CLOUDY    74  59  59 E5        30.13S
RUCKER HELI 3  HAZE      74  58  56 E12       30.12  VSB 1/2
RUCKER HELI 2  CLOUDY    74  59  58 E9        30.12S
FLORALA APT    PTSUNNY   75  60  59 E7        30.13S
ANDALUSIA      PTSUNNY   77  59  53 E5        30.11F
TROY           CLOUDY    73  56  54 E7        30.15S
EUFALA         FAIR      73  59  61 E13       30.17S
MOBILE         FAIR      75  60  59 S12       30.10S
$$

!GAZ120>161-220000
...Southwest and South Central Georgia...

CITY           SKY/WX    TMP DP  RH WIND       PRES   REMARKS
THOMASVILLE    CLOUDY    72  61  68 E14       30.20S
BAINBRIDGE       N/A     73  64  73 E18       30.16R
MOODY AFB      CLOUDY    68  61  76 E8        30.20R
VALDOSTA       CLOUDY    68  60  75 E10G18    30.20R
MOULTRIE       PTSUNNY   70  59  68 E5        30.21S
BLAKELY        FAIR      73  59  60 E13G18    30.17S
ALBANY         CLOUDY    69  59  70 E16       30.22S
TIFTON         CLOUDY    65  61  87 E5        30.23S
FITZGERALD     CLOUDY    66  61  84 E6        30.27S
CORDELE        CLOUDY    69  59  72 E12       30.26S
AMERICUS       CLOUDY    66  48  52 E10       30.25S
HOMERVILLE     CLOUDY    66  61  82 E8        30.23S
$$

!GMZ750-755-770-775-220000
...Coastal and Buoy Obs...

STATION/POSITION TIME  TEMP    WIND        PRES    VSBY  WAVE
                       AIR SEA DIR/SP/G                  HT/PER
                 (UTC) (F)     (DEG/KT/KT) (MB)    (MI)  (FT/S)
KEATON BEACH     2300   75      50/ 12/ 15 1019.9R
CEDAR KEY        2300   77      80/ 17/ 19 1019.0S
C TOWER          2300   72      70/ 15/ 17 1019.2F
APALACHICOLA BUO NOT AVBL
PANAMA CITY BUOY 2250   72 74   90/ 10/ 12 1018.3R         4/ 6
MOBILE BUOY      2300      71   90/ 14/ 17 1018.7
ORANGE BCH AL BU 2300   68      90/ 10/ 12 1019.5
$$




USA.gov is the U.S. government's official web portal to all federal, state and local government web resources and services.